SHA229 VNKT-VNDH

Flight info

Callsign SHA229
Flight time 1h 6m
Altitude 17500
Route DARKE1F NARAN L626 SUKET SUKET1C
Aircraft DH8D/M-SDE2E3FGRY/H

Departure

Time 2026-04-21 19:16
Airport Tribhuvan International Airport (VNKT)

Arrival

Time 2026-04-21 20:22
Airport Dhangarhi Airport (VNDH)
Time Latitude Longitude Altitude Speed Heading
2026-04-21 18:52 27.70497 85.36033 4473 ft 0 kts 73°
2026-04-21 19:12 27.70499 85.36043 4474 ft 5 kts 74°
2026-04-21 19:12 27.70501 85.36048 4474 ft 7 kts 74°
2026-04-21 19:12 27.70504 85.36063 4473 ft 0 kts 76°
2026-04-21 19:13 27.70501 85.36070 4473 ft 5 kts 130°
2026-04-21 19:13 27.70493 85.36134 4472 ft 15 kts 70°
2026-04-21 19:14 27.70547 85.36206 4469 ft 12 kts 41°
2026-04-21 19:14 27.70566 85.36297 4465 ft 12 kts 130°
2026-04-21 19:14 27.70512 85.36310 4466 ft 0 kts 198°
2026-04-21 19:15 27.70369 85.36246 4470 ft 55 kts 206°
2026-04-21 19:15 27.69763 85.35948 4459 ft 129 kts 204°
2026-04-21 19:15 27.68785 85.35510 4440 ft 166 kts 205°
2026-04-21 19:16 27.67699 85.35017 4802 ft 168 kts 207°
2026-04-21 19:16 27.66666 85.34497 5330 ft 164 kts 214°
2026-04-21 19:16 27.65766 85.33719 5826 ft 158 kts 217°
2026-04-21 19:16 27.64879 85.33073 6331 ft 151 kts 231°
2026-04-21 19:17 27.64899 85.30742 6504 ft 175 kts 301°
2026-04-21 19:17 27.65539 85.29517 6618 ft 190 kts 299°
2026-04-21 19:17 27.66361 85.28302 6878 ft 195 kts 310°
2026-04-21 19:18 27.67177 85.27077 7191 ft 198 kts 303°
2026-04-21 19:18 27.67989 85.25823 7464 ft 202 kts 304°
2026-04-21 19:18 27.68780 85.24503 7805 ft 202 kts 297°
2026-04-21 19:18 27.69385 85.23077 8137 ft 203 kts 293°
2026-04-21 19:19 27.69954 85.21658 8523 ft 200 kts 294°
2026-04-21 19:19 27.70062 85.21389 8571 ft 201 kts 294°
2026-04-21 19:19 27.70584 85.20098 8814 ft 203 kts 294°
2026-04-21 19:20 27.71173 85.18644 9143 ft 204 kts 294°
2026-04-21 19:20 27.71758 85.17211 9459 ft 204 kts 295°
2026-04-21 19:20 27.72353 85.15756 9774 ft 204 kts 295°
2026-04-21 19:20 27.72948 85.14305 10034 ft 206 kts 295°
2026-04-21 19:21 27.73560 85.12809 10254 ft 214 kts 295°
2026-04-21 19:21 27.74180 85.11295 10796 ft 213 kts 293°
2026-04-21 19:21 27.74384 85.09690 11266 ft 215 kts 257°
2026-04-21 19:21 27.73719 85.08155 11725 ft 218 kts 239°
2026-04-21 19:22 27.72917 85.06728 12250 ft 219 kts 241°
2026-04-21 19:22 27.72447 85.05115 12717 ft 218 kts 268°
2026-04-21 19:22 27.72409 85.03416 13278 ft 218 kts 268°
2026-04-21 19:22 27.72409 85.01735 13826 ft 217 kts 280°
2026-04-21 19:23 27.72763 85.00085 14357 ft 218 kts 282°
2026-04-21 19:23 27.72850 84.98309 14580 ft 240 kts 267°
2026-04-21 19:23 27.72685 84.96373 14723 ft 260 kts 265°
2026-04-21 19:23 27.72493 84.94314 15112 ft 267 kts 265°
2026-04-21 19:24 27.72301 84.92224 15627 ft 269 kts 266°
2026-04-21 19:24 27.72111 84.90131 16205 ft 268 kts 266°
2026-04-21 19:24 27.71927 84.88075 16721 ft 269 kts 266°
2026-04-21 19:24 27.71741 84.85978 17209 ft 272 kts 266°
2026-04-21 19:25 27.71551 84.83787 17404 ft 285 kts 266°
2026-04-21 19:25 27.71356 84.81545 17454 ft 300 kts 266°
2026-04-21 19:25 27.71149 84.79143 17471 ft 313 kts 266°
2026-04-21 19:25 27.70939 84.76723 17473 ft 318 kts 266°
2026-04-21 19:26 27.70724 84.74265 17467 ft 310 kts 266°
2026-04-21 19:26 27.70510 84.71845 17441 ft 304 kts 266°
2026-04-21 19:26 27.70303 84.69486 17425 ft 298 kts 266°
2026-04-21 19:26 27.70103 84.67212 17411 ft 292 kts 266°
2026-04-21 19:27 27.69981 84.65829 17403 ft 290 kts 266°
2026-04-21 19:27 27.69928 84.65208 17390 ft 290 kts 266°
2026-04-21 19:27 27.69746 84.62949 17376 ft 287 kts 266°
2026-04-21 19:27 27.69548 84.60725 17365 ft 286 kts 266°
2026-04-21 19:28 27.69348 84.58494 17351 ft 282 kts 266°
2026-04-21 19:28 27.69151 84.56307 17340 ft 279 kts 266°
2026-04-21 19:28 27.68956 84.54130 17319 ft 278 kts 266°
2026-04-21 19:28 27.68762 84.51939 17305 ft 278 kts 266°
2026-04-21 19:29 27.68570 84.49779 17288 ft 276 kts 266°
2026-04-21 19:29 27.68379 84.47634 17286 ft 275 kts 266°
2026-04-21 19:29 27.68187 84.45472 17288 ft 273 kts 266°
2026-04-21 19:29 27.68047 84.43361 17281 ft 269 kts 273°
2026-04-21 19:30 27.68470 84.41337 17317 ft 265 kts 290°
2026-04-21 19:30 27.69130 84.39394 17312 ft 264 kts 291°
2026-04-21 19:30 27.69793 84.37458 17298 ft 264 kts 291°
2026-04-21 19:30 27.70442 84.35558 17301 ft 262 kts 291°
2026-04-21 19:31 27.71079 84.33688 17304 ft 261 kts 291°
2026-04-21 19:31 27.71655 84.31994 17311 ft 259 kts 291°
2026-04-21 19:31 27.72292 84.30112 17325 ft 259 kts 290°
2026-04-21 19:31 27.73010 84.27988 17323 ft 258 kts 290°
2026-04-21 19:32 27.73659 84.26065 17333 ft 257 kts 290°
2026-04-21 19:32 27.74290 84.24191 17346 ft 258 kts 290°
2026-04-21 19:32 27.74935 84.22275 17351 ft 259 kts 290°
2026-04-21 19:32 27.75573 84.20381 17352 ft 260 kts 290°
2026-04-21 19:33 27.76004 84.19099 17357 ft 260 kts 290°
2026-04-21 19:33 27.76867 84.16530 17358 ft 262 kts 290°
2026-04-21 19:33 27.77513 84.14606 17353 ft 264 kts 290°
2026-04-21 19:33 27.78170 84.12646 17360 ft 265 kts 290°
2026-04-21 19:34 27.78820 84.10708 17372 ft 265 kts 291°
2026-04-21 19:34 27.79474 84.08753 17375 ft 266 kts 291°
2026-04-21 19:34 27.80126 84.06805 17371 ft 267 kts 290°
2026-04-21 19:34 27.80788 84.04826 17379 ft 268 kts 290°
2026-04-21 19:35 27.81451 84.02843 17389 ft 268 kts 290°
2026-04-21 19:35 27.82766 83.98908 17401 ft 269 kts 290°
2026-04-21 19:35 27.83425 83.96934 17398 ft 270 kts 290°
2026-04-21 19:36 27.84091 83.94937 17405 ft 270 kts 290°
2026-04-21 19:36 27.84751 83.92958 17397 ft 270 kts 290°
2026-04-21 19:36 27.85414 83.90971 17400 ft 270 kts 290°
2026-04-21 19:36 27.86080 83.88969 17403 ft 270 kts 291°
2026-04-21 19:37 27.86746 83.86966 17410 ft 270 kts 291°
2026-04-21 19:37 27.87401 83.84999 17409 ft 270 kts 291°
2026-04-21 19:37 27.88067 83.82995 17408 ft 270 kts 290°
2026-04-21 19:37 27.88722 83.81024 17408 ft 270 kts 290°
2026-04-21 19:38 27.89384 83.79029 17415 ft 270 kts 290°
2026-04-21 19:38 27.90043 83.77043 17413 ft 270 kts 290°
2026-04-21 19:38 27.90484 83.75716 17409 ft 270 kts 290°
2026-04-21 19:38 27.91367 83.73051 17404 ft 271 kts 290°
2026-04-21 19:39 27.92020 83.71082 17399 ft 271 kts 290°
2026-04-21 19:39 27.92688 83.69064 17405 ft 271 kts 290°
2026-04-21 19:39 27.93344 83.67083 17410 ft 271 kts 290°
2026-04-21 19:39 27.94004 83.65090 17416 ft 271 kts 290°
2026-04-21 19:40 27.94663 83.63097 17420 ft 271 kts 291°
2026-04-21 19:40 27.95319 83.61116 17426 ft 271 kts 291°
2026-04-21 19:40 27.95983 83.59104 17428 ft 271 kts 291°
2026-04-21 19:40 27.96644 83.57104 17435 ft 271 kts 291°
2026-04-21 19:41 27.97299 83.55118 17444 ft 271 kts 291°
2026-04-21 19:41 27.97956 83.53127 17474 ft 270 kts 291°
2026-04-21 19:41 27.98613 83.51132 17472 ft 271 kts 291°
2026-04-21 19:41 27.99268 83.49143 17465 ft 271 kts 291°
2026-04-21 19:42 27.99925 83.47147 17470 ft 271 kts 290°
2026-04-21 19:42 28.00584 83.45143 17507 ft 269 kts 290°
2026-04-21 19:42 28.01238 83.43154 17515 ft 270 kts 290°
2026-04-21 19:42 28.01888 83.41177 17496 ft 271 kts 290°
2026-04-21 19:43 28.02549 83.39168 17461 ft 272 kts 290°
2026-04-21 19:43 28.03198 83.37189 17525 ft 269 kts 290°
2026-04-21 19:43 28.03857 83.35179 17539 ft 269 kts 290°
2026-04-21 19:43 28.04504 83.33205 17549 ft 270 kts 290°
2026-04-21 19:44 28.05157 83.31214 17529 ft 272 kts 290°
2026-04-21 19:44 28.05819 83.29191 17517 ft 272 kts 290°
2026-04-21 19:44 28.06470 83.27200 17532 ft 272 kts 290°
2026-04-21 19:44 28.07136 83.25166 17504 ft 274 kts 290°
2026-04-21 19:45 28.07796 83.23145 17494 ft 272 kts 290°
2026-04-21 19:45 28.08447 83.21156 17491 ft 269 kts 290°
2026-04-21 19:45 28.09093 83.19177 17510 ft 266 kts 290°
2026-04-21 19:45 28.09723 83.17248 17538 ft 264 kts 290°
2026-04-21 19:46 28.10345 83.15341 17526 ft 262 kts 290°
2026-04-21 19:46 28.10980 83.13393 17515 ft 262 kts 290°
2026-04-21 19:46 28.11602 83.11483 17546 ft 260 kts 290°
2026-04-21 19:46 28.12230 83.09554 17584 ft 257 kts 290°
2026-04-21 19:47 28.12841 83.07677 17594 ft 256 kts 289°
2026-04-21 19:47 28.13457 83.05782 17624 ft 256 kts 289°
2026-04-21 19:47 28.14067 83.03909 17596 ft 257 kts 290°
2026-04-21 19:47 28.14690 83.01989 17588 ft 257 kts 290°
2026-04-21 19:48 28.15304 83.00101 17568 ft 258 kts 290°
2026-04-21 19:48 28.15920 82.98205 17557 ft 256 kts 290°
2026-04-21 19:48 28.16529 82.96325 17594 ft 253 kts 289°
2026-04-21 19:48 28.17132 82.94466 17633 ft 250 kts 289°
2026-04-21 19:49 28.17727 82.92630 17627 ft 250 kts 289°
2026-04-21 19:49 28.18321 82.90795 17600 ft 250 kts 289°
2026-04-21 19:49 28.18927 82.88925 17588 ft 250 kts 290°
2026-04-21 19:49 28.19523 82.87083 17529 ft 252 kts 290°
2026-04-21 19:50 28.19924 82.85844 17537 ft 250 kts 290°
2026-04-21 19:50 28.20719 82.83386 17578 ft 248 kts 289°
2026-04-21 19:50 28.21318 82.81531 17579 ft 248 kts 289°
2026-04-21 19:50 28.21899 82.79733 17597 ft 246 kts 289°
2026-04-21 19:51 28.22484 82.77921 17595 ft 244 kts 290°
2026-04-21 19:51 28.23062 82.76128 17596 ft 244 kts 289°
2026-04-21 19:51 28.23650 82.74305 17568 ft 246 kts 290°
2026-04-21 19:51 28.24222 82.72533 17541 ft 248 kts 290°
2026-04-21 19:52 28.24808 82.70712 17542 ft 249 kts 289°
2026-04-21 19:52 28.25398 82.68879 17566 ft 248 kts 290°
2026-04-21 19:52 28.25987 82.67052 17591 ft 246 kts 290°
2026-04-21 19:52 28.26556 82.65281 17610 ft 244 kts 289°
2026-04-21 19:53 28.27126 82.63509 17633 ft 242 kts 289°
2026-04-21 19:53 28.27695 82.61738 17637 ft 241 kts 289°
2026-04-21 19:53 28.28268 82.59955 17626 ft 242 kts 289°
2026-04-21 19:53 28.28837 82.58181 17650 ft 241 kts 289°
2026-04-21 19:54 28.29409 82.56399 17662 ft 242 kts 289°
2026-04-21 19:54 28.29983 82.54607 17657 ft 243 kts 289°
2026-04-21 19:54 28.30557 82.52819 17667 ft 243 kts 289°
2026-04-21 19:54 28.31133 82.51018 17687 ft 243 kts 290°
2026-04-21 19:55 28.31703 82.49239 17691 ft 243 kts 289°
2026-04-21 19:55 28.32274 82.47455 17690 ft 244 kts 289°
2026-04-21 19:55 28.32850 82.45654 17683 ft 244 kts 290°
2026-04-21 19:55 28.33431 82.43835 17678 ft 244 kts 290°
2026-04-21 19:56 28.33998 82.42061 17676 ft 243 kts 290°
2026-04-21 19:56 28.34572 82.40265 17692 ft 243 kts 289°
2026-04-21 19:56 28.35150 82.38451 17690 ft 242 kts 290°
2026-04-21 19:56 28.35709 82.36699 17684 ft 242 kts 289°
2026-04-21 19:57 28.36279 82.34911 17698 ft 240 kts 289°
2026-04-21 19:57 28.36840 82.33150 17697 ft 241 kts 289°
2026-04-21 19:57 28.37402 82.31387 17674 ft 242 kts 289°
2026-04-21 19:57 28.37974 82.29586 17656 ft 243 kts 289°
2026-04-21 19:58 28.38547 82.27784 17639 ft 243 kts 289°
2026-04-21 19:58 28.39114 82.25997 17631 ft 243 kts 289°
2026-04-21 19:58 28.39689 82.24188 17646 ft 242 kts 290°
2026-04-21 19:58 28.40261 82.22385 17651 ft 242 kts 289°
2026-04-21 19:59 28.40829 82.20596 17639 ft 241 kts 289°
2026-04-21 19:59 28.41387 82.18838 17625 ft 241 kts 289°
2026-04-21 19:59 28.41959 82.17036 17604 ft 242 kts 289°
2026-04-21 19:59 28.42528 82.15239 17602 ft 243 kts 289°
2026-04-21 20:00 28.43093 82.13457 17590 ft 244 kts 289°
2026-04-21 20:00 28.43667 82.11644 17581 ft 243 kts 289°
2026-04-21 20:00 28.44237 82.09843 17604 ft 242 kts 289°
2026-04-21 20:00 28.44804 82.08049 17587 ft 241 kts 289°
2026-04-21 20:01 28.45366 82.06271 17579 ft 241 kts 289°
2026-04-21 20:01 28.45931 82.04484 17571 ft 242 kts 289°
2026-04-21 20:01 28.46503 82.02676 17545 ft 244 kts 289°
2026-04-21 20:01 28.47070 82.00878 17528 ft 245 kts 290°
2026-04-21 20:02 28.47458 81.99649 17530 ft 244 kts 290°
2026-04-21 20:02 28.48217 81.97239 17539 ft 245 kts 290°
2026-04-21 20:02 28.48789 81.95426 17540 ft 245 kts 290°
2026-04-21 20:02 28.49357 81.93623 17539 ft 246 kts 290°
2026-04-21 20:03 28.49930 81.91801 17522 ft 247 kts 289°
2026-04-21 20:03 28.50514 81.89943 17486 ft 248 kts 289°
2026-04-21 20:03 28.51091 81.88109 17498 ft 248 kts 289°
2026-04-21 20:03 28.51665 81.86283 17494 ft 249 kts 289°
2026-04-21 20:04 28.52243 81.84444 17478 ft 249 kts 289°
2026-04-21 20:04 28.52816 81.82618 17482 ft 249 kts 289°
2026-04-21 20:04 28.53399 81.80760 17486 ft 249 kts 289°
2026-04-21 20:04 28.53980 81.78907 17514 ft 250 kts 289°
2026-04-21 20:05 28.54557 81.77067 17486 ft 251 kts 289°
2026-04-21 20:05 28.55142 81.75198 17478 ft 253 kts 290°
2026-04-21 20:05 28.55731 81.73319 17458 ft 254 kts 290°
2026-04-21 20:05 28.56322 81.71425 17375 ft 253 kts 290°
2026-04-21 20:06 28.56916 81.69522 17242 ft 254 kts 290°
2026-04-21 20:06 28.57506 81.67632 17122 ft 253 kts 290°
2026-04-21 20:06 28.58092 81.65751 16995 ft 250 kts 290°
2026-04-21 20:06 28.58656 81.63923 16702 ft 249 kts 288°
2026-04-21 20:07 28.59065 81.62006 16387 ft 251 kts 281°
2026-04-21 20:07 28.59372 81.60056 16131 ft 250 kts 280°
2026-04-21 20:07 28.59572 81.58781 15987 ft 249 kts 280°
2026-04-21 20:07 28.59975 81.56213 15698 ft 247 kts 280°
2026-04-21 20:08 28.60276 81.54304 15433 ft 246 kts 281°
2026-04-21 20:08 28.60576 81.52400 15179 ft 247 kts 281°
2026-04-21 20:08 28.60881 81.50478 14979 ft 244 kts 281°
2026-04-21 20:08 28.61177 81.48610 14727 ft 244 kts 281°
2026-04-21 20:09 28.61478 81.46711 14482 ft 243 kts 281°
2026-04-21 20:09 28.61780 81.44810 14255 ft 243 kts 281°
2026-04-21 20:09 28.62074 81.42952 14057 ft 241 kts 281°
2026-04-21 20:09 28.62371 81.41080 13815 ft 240 kts 281°
2026-04-21 20:10 28.62674 81.39175 13260 ft 253 kts 281°
2026-04-21 20:10 28.62992 81.37173 12832 ft 261 kts 281°
2026-04-21 20:10 28.63313 81.35153 12684 ft 258 kts 281°
2026-04-21 20:10 28.63630 81.33149 12566 ft 256 kts 281°
2026-04-21 20:11 28.63947 81.31147 12403 ft 255 kts 281°
2026-04-21 20:11 28.64264 81.29140 12238 ft 256 kts 281°
2026-04-21 20:11 28.64574 81.27174 12049 ft 256 kts 281°
2026-04-21 20:11 28.64889 81.25172 11749 ft 258 kts 281°
2026-04-21 20:12 28.65206 81.23156 11407 ft 262 kts 281°
2026-04-21 20:12 28.65532 81.21082 11053 ft 268 kts 282°
2026-04-21 20:12 28.65753 81.19678 10817 ft 269 kts 282°
2026-04-21 20:12 28.66190 81.16890 10350 ft 271 kts 282°
2026-04-21 20:13 28.66519 81.14789 10008 ft 273 kts 281°
2026-04-21 20:13 28.66852 81.12659 9661 ft 275 kts 281°
2026-04-21 20:13 28.67189 81.10506 9306 ft 275 kts 282°
2026-04-21 20:13 28.67523 81.08362 8964 ft 276 kts 281°
2026-04-21 20:14 28.67857 81.06220 8681 ft 273 kts 281°
2026-04-21 20:14 28.68183 81.04120 8401 ft 269 kts 281°
2026-04-21 20:14 28.68508 81.02029 8114 ft 267 kts 280°
2026-04-21 20:14 28.68831 80.99950 7824 ft 263 kts 280°
2026-04-21 20:15 28.69148 80.97910 7548 ft 262 kts 280°
2026-04-21 20:15 28.69464 80.95871 7215 ft 263 kts 279°
2026-04-21 20:15 28.69804 80.93819 6873 ft 263 kts 280°
2026-04-21 20:15 28.70181 80.91785 6531 ft 261 kts 280°
2026-04-21 20:16 28.70621 80.89819 6318 ft 256 kts 288°
2026-04-21 20:16 28.71369 80.88025 6254 ft 246 kts 295°
2026-04-21 20:16 28.72147 80.86327 6223 ft 234 kts 295°
2026-04-21 20:16 28.72885 80.84711 5956 ft 229 kts 295°
2026-04-21 20:17 28.73603 80.83126 5605 ft 222 kts 295°
2026-04-21 20:17 28.74297 80.81593 5250 ft 214 kts 294°
2026-04-21 20:17 28.74968 80.80109 4874 ft 207 kts 295°
2026-04-21 20:17 28.75606 80.78660 4498 ft 200 kts 289°
2026-04-21 20:18 28.75826 80.77661 4237 ft 190 kts 271°
2026-04-21 20:18 28.75823 80.75722 3772 ft 179 kts 265°
2026-04-21 20:18 28.75795 80.74341 3403 ft 175 kts 266°
2026-04-21 20:18 28.75767 80.72973 3031 ft 170 kts 265°
2026-04-21 20:19 28.75743 80.71668 2693 ft 164 kts 266°
2026-04-21 20:19 28.75720 80.70371 2379 ft 164 kts 266°
2026-04-21 20:19 28.75703 80.69083 2205 ft 160 kts 266°
2026-04-21 20:19 28.75688 80.67841 2111 ft 156 kts 266°
2026-04-21 20:20 28.75673 80.66650 2057 ft 147 kts 266°
2026-04-21 20:20 28.75654 80.65497 1922 ft 149 kts 266°
2026-04-21 20:20 28.75613 80.64307 1653 ft 149 kts 265°
2026-04-21 20:20 28.75593 80.63165 1500 ft 140 kts 268°
2026-04-21 20:21 28.75586 80.62084 1198 ft 137 kts 266°
2026-04-21 20:21 28.75567 80.61056 976 ft 127 kts 266°
2026-04-21 20:21 28.75551 80.60079 787 ft 122 kts 266°
2026-04-21 20:21 28.75543 80.59117 632 ft 114 kts 264°
2026-04-21 20:22 28.75517 80.58298 632 ft 91 kts 265°
2026-04-21 20:22 28.75513 80.57747 632 ft 2 kts 262°
2026-04-21 20:22 28.75517 80.57701 632 ft 6 kts 303°
2026-04-21 20:23 28.75509 80.57662 632 ft 7 kts 146°
2026-04-21 20:23 28.75510 80.57729 632 ft 13 kts 82°
2026-04-21 20:23 28.75521 80.57902 632 ft 26 kts 90°
2026-04-21 20:23 28.75522 80.58075 632 ft 14 kts 90°
2026-04-21 20:24 28.75522 80.58179 632 ft 9 kts 88°
2026-04-21 20:24 28.75499 80.58256 632 ft 11 kts 162°
2026-04-21 20:24 28.75442 80.58253 631 ft 6 kts 216°
2026-04-21 20:24 28.75420 80.58229 631 ft 2 kts 204°
2026-04-21 20:25 28.75400 80.58237 630 ft 0 kts 104°
2026-04-21 20:25 28.75399 80.58237 633 ft 0 kts 103°
2026-04-21 20:25 28.75395 80.58237 630 ft 0 kts 95°